Location: Grange Rosano
(44.4500°N, 6.9667°E)
Time: 07:54:16
(UTC+00:00)

ADEOS II - Pass Details

Date: 26 May 2022
Orbit: 799 x 800 km, 98.6° (Epoch: 01 July)

Event Time Altitude Azimuth Distance (km) Brightness Sun altitude
Rises 01:38:02 0° 14° (NNE) 3,317 6.7 -18.1°
Reaches altitude 10° 01:40:23 10° 16° (NNE) 2,382 5.7 -17.9°
Maximum altitude 01:45:39 79° 104° (ESE) 819 2.1 -17.4°
Enters shadow 01:48:45 25° 188° (S) 1,549 3.1 -17.1°
